date,time,SUV Intensity [MED/Hr],UV Index,Daily total [MED],Since Last [MED]
31/12/2022,00:01:10,0.000,0.0,0.0,0.0
31/12/2022,00:02:11,-0.001,0.0,0.0,0.0
31/12/2022,00:03:10,-0.000,0.0,0.0,0.0
31/12/2022,00:04:11,0.000,0.0,0.0,0.0
31/12/2022,00:05:12,0.001,0.0,0.0,0.0
31/12/2022,00:06:11,-0.000,0.0,0.0,0.0
31/12/2022,00:07:11,0.001,0.0,0.0,0.0
31/12/2022,00:08:10,0.000,0.0,0.0,0.0
31/12/2022,00:09:10,0.000,0.0,0.0,0.0
31/12/2022,00:10:11,0.000,0.0,0.0,0.0
31/12/2022,00:11:11,-0.001,0.0,0.0,0.0
31/12/2022,00:12:11,0.000,0.0,0.0,0.0
31/12/2022,00:13:11,0.001,0.0,0.0,0.0
31/12/2022,00:14:10,0.000,0.0,0.0,0.0
31/12/2022,00:15:10,0.001,0.0,0.0,0.0
31/12/2022,00:16:11,0.000,0.0,0.0,0.0
31/12/2022,00:17:11,0.000,0.0,0.0,0.0
31/12/2022,00:18:11,0.001,0.0,0.0,0.0
31/12/2022,00:19:11,0.000,0.0,0.0,0.0
31/12/2022,00:20:11,0.000,0.0,0.0,0.0
31/12/2022,00:21:11,0.000,0.0,0.0,0.0
31/12/2022,00:22:10,0.001,0.0,0.0,0.0
31/12/2022,00:23:11,0.000,0.0,0.0,0.0
31/12/2022,00:24:11,-0.001,0.0,0.0,0.0
31/12/2022,00:25:10,0.000,0.0,0.0,0.0
31/12/2022,00:26:10,0.000,0.0,0.0,0.0
31/12/2022,00:27:11,-0.001,0.0,0.0,0.0
31/12/2022,00:28:10,0.000,0.0,0.0,0.0
31/12/2022,00:29:11,0.000,0.0,0.0,0.0
31/12/2022,00:30:11,0.000,0.0,0.0,0.0
31/12/2022,00:31:10,0.000,0.0,0.0,0.0
31/12/2022,00:32:11,0.000,0.0,0.0,0.0
31/12/2022,00:33:11,-0.000,0.0,0.0,0.0
31/12/2022,00:34:11,0.000,0.0,0.0,0.0
31/12/2022,00:35:11,-0.000,0.0,0.0,0.0
31/12/2022,00:36:11,-0.001,0.0,0.0,0.0
31/12/2022,00:37:11,0.000,0.0,0.0,0.0
31/12/2022,00:38:11,-0.000,0.0,0.0,0.0
31/12/2022,00:39:11,0.000,0.0,0.0,0.0
31/12/2022,00:40:10,0.000,0.0,0.0,0.0
31/12/2022,00:41:11,0.001,0.0,0.0,0.0
31/12/2022,00:42:11,0.001,0.0,0.0,0.0
31/12/2022,00:43:11,0.001,0.0,0.0,0.0
31/12/2022,00:44:11,-0.000,0.0,0.0,0.0
31/12/2022,00:45:11,0.000,0.0,0.0,0.0
31/12/2022,00:46:11,-0.000,0.0,0.0,0.0
31/12/2022,00:47:10,0.000,0.0,0.0,0.0
31/12/2022,00:48:10,0.001,0.0,0.0,0.0
31/12/2022,00:49:11,0.000,0.0,0.0,0.0
31/12/2022,00:50:10,-0.000,0.0,0.0,0.0
31/12/2022,00:51:11,-0.000,0.0,0.0,0.0
31/12/2022,00:52:10,-0.000,0.0,0.0,0.0
31/12/2022,00:53:10,0.000,0.0,0.0,0.0
31/12/2022,00:54:11,-0.000,0.0,0.0,0.0
31/12/2022,00:55:11,0.001,0.0,0.0,0.0
31/12/2022,00:56:11,-0.000,0.0,0.0,0.0
31/12/2022,00:57:11,-0.000,0.0,0.0,0.0
31/12/2022,00:58:11,-0.001,0.0,0.0,0.0
31/12/2022,00:59:10,-0.001,0.0,0.0,0.0
31/12/2022,01:00:11,-0.000,0.0,0.0,0.0
31/12/2022,01:01:11,0.000,0.0,0.0,0.0
31/12/2022,01:02:11,-0.000,0.0,0.0,0.0
31/12/2022,01:03:11,0.000,0.0,0.0,0.0
31/12/2022,01:04:10,0.001,0.0,0.0,0.0
31/12/2022,01:05:11,-0.000,0.0,0.0,0.0
31/12/2022,01:06:11,0.001,0.0,0.0,0.0
31/12/2022,01:07:10,0.001,0.0,0.0,0.0
31/12/2022,01:08:11,0.000,0.0,0.0,0.0
31/12/2022,01:09:11,-0.000,0.0,0.0,0.0
31/12/2022,01:10:11,0.001,0.0,0.0,0.0
31/12/2022,01:11:11,-0.000,0.0,0.0,0.0
31/12/2022,01:12:11,-0.000,0.0,0.0,0.0
31/12/2022,01:13:11,0.000,0.0,0.0,0.0
31/12/2022,01:14:11,-0.001,0.0,0.0,0.0
31/12/2022,01:15:11,-0.000,0.0,0.0,0.0
31/12/2022,01:16:11,0.000,0.0,0.0,0.0
31/12/2022,01:17:11,-0.000,0.0,0.0,0.0
31/12/2022,01:18:11,-0.001,0.0,0.0,0.0
31/12/2022,01:19:10,-0.001,0.0,0.0,0.0
31/12/2022,01:20:10,0.000,0.0,0.0,0.0
31/12/2022,01:21:11,-0.001,0.0,0.0,0.0
31/12/2022,01:22:11,-0.001,0.0,0.0,0.0
31/12/2022,01:23:11,-0.000,0.0,0.0,0.0
31/12/2022,01:24:11,-0.002,0.0,0.0,0.0
31/12/2022,01:25:11,-0.001,0.0,0.0,0.0
31/12/2022,01:26:10,-0.001,0.0,0.0,0.0
31/12/2022,01:27:12,-0.001,0.0,0.0,0.0
31/12/2022,01:28:11,0.001,0.0,0.0,0.0
31/12/2022,01:29:11,-0.000,0.0,0.0,0.0
31/12/2022,01:30:11,-0.001,0.0,0.0,0.0
31/12/2022,01:31:11,-0.000,0.0,0.0,0.0
31/12/2022,01:32:11,-0.001,0.0,0.0,0.0
31/12/2022,01:33:10,-0.001,0.0,0.0,0.0
31/12/2022,01:34:11,0.000,0.0,0.0,0.0
31/12/2022,01:35:11,-0.001,0.0,0.0,0.0
31/12/2022,01:36:11,-0.000,0.0,0.0,0.0
31/12/2022,01:37:11,-0.000,0.0,0.0,0.0
31/12/2022,01:38:11,-0.001,0.0,0.0,0.0
31/12/2022,01:39:11,-0.000,0.0,0.0,0.0
31/12/2022,01:40:11,-0.001,0.0,0.0,0.0
31/12/2022,01:41:11,0.000,0.0,0.0,0.0
31/12/2022,01:42:11,0.000,0.0,0.0,0.0
31/12/2022,01:43:11,-0.001,0.0,0.0,0.0
31/12/2022,01:44:11,-0.000,0.0,0.0,0.0
31/12/2022,01:45:10,-0.000,0.0,0.0,0.0
31/12/2022,01:46:11,0.000,0.0,0.0,0.0
31/12/2022,01:47:11,-0.000,0.0,0.0,0.0
31/12/2022,01:48:11,-0.001,0.0,0.0,0.0
31/12/2022,01:49:10,-0.000,0.0,0.0,0.0
31/12/2022,01:50:10,-0.002,0.0,0.0,0.0
31/12/2022,01:51:11,-0.000,0.0,0.0,0.0
31/12/2022,01:52:11,-0.001,0.0,0.0,0.0
31/12/2022,01:53:11,0.001,0.0,0.0,0.0
31/12/2022,01:54:11,0.001,0.0,0.0,0.0
31/12/2022,01:55:11,-0.001,0.0,0.0,0.0
31/12/2022,01:56:11,-0.001,0.0,0.0,0.0
31/12/2022,01:57:10,-0.001,0.0,0.0,0.0
31/12/2022,01:58:33,-0.001,0.0,0.0,0.0
31/12/2022,01:59:11,-0.000,0.0,0.0,0.0
31/12/2022,02:00:11,-0.000,0.0,0.0,0.0
31/12/2022,02:01:11,-0.000,0.0,0.0,0.0
31/12/2022,02:02:11,-0.000,0.0,0.0,0.0
31/12/2022,02:03:11,-0.000,0.0,0.0,0.0
31/12/2022,02:04:11,-0.000,0.0,0.0,0.0
31/12/2022,02:05:11,-0.001,0.0,0.0,0.0
31/12/2022,02:06:12,-0.000,0.0,0.0,0.0
31/12/2022,02:07:11,-0.000,0.0,0.0,0.0
31/12/2022,02:08:11,-0.001,0.0,0.0,0.0
31/12/2022,02:09:10,-0.000,0.0,0.0,0.0
31/12/2022,02:10:11,-0.000,0.0,0.0,0.0
31/12/2022,02:11:11,-0.000,0.0,0.0,0.0
31/12/2022,02:12:11,-0.000,0.0,0.0,0.0
31/12/2022,02:13:11,-0.000,0.0,0.0,0.0
31/12/2022,02:14:11,-0.000,0.0,0.0,0.0
31/12/2022,02:15:11,0.000,0.0,0.0,0.0
31/12/2022,02:16:11,-0.001,0.0,0.0,0.0
31/12/2022,02:17:11,0.000,0.0,0.0,0.0
31/12/2022,02:18:11,-0.000,0.0,0.0,0.0
31/12/2022,02:19:11,-0.001,0.0,0.0,0.0
31/12/2022,02:20:11,-0.001,0.0,0.0,0.0
31/12/2022,02:21:11,-0.000,0.0,0.0,0.0
31/12/2022,02:22:11,0.000,0.0,0.0,0.0
31/12/2022,02:23:11,-0.000,0.0,0.0,0.0
31/12/2022,02:24:11,0.000,0.0,0.0,0.0
31/12/2022,02:25:10,0.000,0.0,0.0,0.0
31/12/2022,02:26:11,-0.000,0.0,0.0,0.0
31/12/2022,02:27:11,-0.000,0.0,0.0,0.0
31/12/2022,02:28:11,0.000,0.0,0.0,0.0
31/12/2022,02:29:11,0.000,0.0,0.0,0.0
31/12/2022,02:30:11,-0.000,0.0,0.0,0.0
31/12/2022,02:31:11,0.000,0.0,0.0,0.0
31/12/2022,02:32:11,-0.001,0.0,0.0,0.0
31/12/2022,02:33:11,0.001,0.0,0.0,0.0
31/12/2022,02:34:11,0.000,0.0,0.0,0.0
31/12/2022,02:35:11,-0.000,0.0,0.0,0.0
31/12/2022,02:36:11,-0.000,0.0,0.0,0.0
31/12/2022,02:37:11,0.000,0.0,0.0,0.0
31/12/2022,02:38:11,-0.000,0.0,0.0,0.0
31/12/2022,02:39:11,-0.000,0.0,0.0,0.0
31/12/2022,02:40:10,0.000,0.0,0.0,0.0
31/12/2022,02:41:10,0.001,0.0,0.0,0.0
31/12/2022,02:42:11,-0.001,0.0,0.0,0.0
31/12/2022,02:43:11,0.000,0.0,0.0,0.0
31/12/2022,02:44:11,0.000,0.0,0.0,0.0
31/12/2022,02:45:11,-0.000,0.0,0.0,0.0
31/12/2022,02:46:11,0.001,0.0,0.0,0.0
31/12/2022,02:47:11,0.000,0.0,0.0,0.0
31/12/2022,02:48:11,-0.001,0.0,0.0,0.0
31/12/2022,02:49:11,-0.001,0.0,0.0,0.0
31/12/2022,02:50:11,-0.001,0.0,0.0,0.0
31/12/2022,02:51:11,0.000,0.0,0.0,0.0
31/12/2022,02:52:11,0.000,0.0,0.0,0.0
31/12/2022,02:53:11,0.000,0.0,0.0,0.0
31/12/2022,02:54:11,-0.001,0.0,0.0,0.0
31/12/2022,02:55:11,0.000,0.0,0.0,0.0
31/12/2022,02:56:10,0.000,0.0,0.0,0.0
31/12/2022,02:57:33,0.001,0.0,0.0,0.0
31/12/2022,02:58:11,0.000,0.0,0.0,0.0
31/12/2022,02:59:11,0.000,0.0,0.0,0.0
31/12/2022,03:00:11,0.000,0.0,0.0,0.0
31/12/2022,03:01:11,0.001,0.0,0.0,0.0
31/12/2022,03:02:11,0.000,0.0,0.0,0.0
31/12/2022,03:03:11,0.001,0.0,0.0,0.0
31/12/2022,03:04:11,0.000,0.0,0.0,0.0
31/12/2022,03:05:11,0.000,0.0,0.0,0.0
31/12/2022,03:06:11,-0.001,0.0,0.0,0.0
31/12/2022,03:07:11,0.000,0.0,0.0,0.0
31/12/2022,03:08:11,-0.001,0.0,0.0,0.0
31/12/2022,03:09:11,0.001,0.0,0.0,0.0
31/12/2022,03:10:11,0.000,0.0,0.0,0.0
31/12/2022,03:11:11,0.000,0.0,0.0,0.0
31/12/2022,03:12:11,0.000,0.0,0.0,0.0
31/12/2022,03:13:11,0.002,0.0,0.0,0.0
31/12/2022,03:14:11,0.001,0.0,0.0,0.0
31/12/2022,03:15:11,0.000,0.0,0.0,0.0
31/12/2022,03:16:11,0.001,0.0,0.0,0.0
31/12/2022,03:17:12,0.000,0.0,0.0,0.0
31/12/2022,03:18:12,0.000,0.0,0.0,0.0
31/12/2022,03:19:11,0.000,0.0,0.0,0.0
31/12/2022,03:20:11,0.000,0.0,0.0,0.0
31/12/2022,03:21:11,0.000,0.0,0.0,0.0
31/12/2022,03:22:11,0.000,0.0,0.0,0.0
31/12/2022,03:23:11,0.000,0.0,0.0,0.0
31/12/2022,03:24:11,0.000,0.0,0.0,0.0
31/12/2022,03:25:11,0.000,0.0,0.0,0.0
31/12/2022,03:26:11,0.000,0.0,0.0,0.0
31/12/2022,03:27:11,0.000,0.0,0.0,0.0
31/12/2022,03:28:11,0.001,0.0,0.0,0.0
31/12/2022,03:29:11,0.000,0.0,0.0,0.0
31/12/2022,03:30:11,-0.001,0.0,0.0,0.0
31/12/2022,03:31:11,0.000,0.0,0.0,0.0
31/12/2022,03:32:10,0.001,0.0,0.0,0.0
31/12/2022,03:33:11,0.000,0.0,0.0,0.0
31/12/2022,03:34:11,0.000,0.0,0.0,0.0
31/12/2022,03:35:11,0.000,0.0,0.0,0.0
31/12/2022,03:36:11,0.001,0.0,0.0,0.0
31/12/2022,03:37:11,0.001,0.0,0.0,0.0
31/12/2022,03:38:13,0.000,0.0,0.0,0.0
31/12/2022,03:39:11,0.001,0.0,0.0,0.0
31/12/2022,03:40:11,0.000,0.0,0.0,0.0
31/12/2022,03:41:11,0.001,0.0,0.0,0.0
31/12/2022,03:42:11,0.000,0.0,0.0,0.0
31/12/2022,03:43:11,0.001,0.0,0.0,0.0
31/12/2022,03:44:11,0.001,0.0,0.0,0.0
31/12/2022,03:45:11,0.000,0.0,0.0,0.0
31/12/2022,03:46:11,-0.001,0.0,0.0,0.0
31/12/2022,03:47:12,0.001,0.0,0.0,0.0
31/12/2022,03:48:11,-0.000,0.0,0.0,0.0
31/12/2022,03:49:11,0.000,0.0,0.0,0.0
31/12/2022,03:50:11,0.000,0.0,0.0,0.0
31/12/2022,03:51:11,0.000,0.0,0.0,0.0
31/12/2022,03:52:11,0.000,0.0,0.0,0.0
31/12/2022,03:53:11,0.001,0.0,0.0,0.0
31/12/2022,03:54:11,-0.001,0.0,0.0,0.0
31/12/2022,03:55:11,0.000,0.0,0.0,0.0
31/12/2022,03:56:11,-0.000,0.0,0.0,0.0
31/12/2022,03:57:11,0.000,0.0,0.0,0.0
31/12/2022,03:58:11,0.000,0.0,0.0,0.0
31/12/2022,03:59:11,0.000,0.0,0.0,0.0
31/12/2022,04:00:11,0.000,0.0,0.0,0.0
31/12/2022,04:01:11,0.000,0.0,0.0,0.0
31/12/2022,04:02:11,0.000,0.0,0.0,0.0
31/12/2022,04:03:11,-0.001,0.0,0.0,0.0
31/12/2022,04:04:11,0.000,0.0,0.0,0.0
31/12/2022,04:05:11,-0.000,0.0,0.0,0.0
31/12/2022,04:06:11,0.000,0.0,0.0,0.0
31/12/2022,04:07:11,0.001,0.0,0.0,0.0
31/12/2022,04:08:11,0.000,0.0,0.0,0.0
31/12/2022,04:09:11,0.001,0.0,0.0,0.0
31/12/2022,04:10:11,-0.001,0.0,0.0,0.0
31/12/2022,04:11:11,-0.001,0.0,0.0,0.0
31/12/2022,04:12:11,0.001,0.0,0.0,0.0
31/12/2022,04:13:11,0.001,0.0,0.0,0.0
31/12/2022,04:14:11,0.000,0.0,0.0,0.0
31/12/2022,04:15:11,-0.001,0.0,0.0,0.0
31/12/2022,04:16:12,0.000,0.0,0.0,0.0
31/12/2022,04:17:11,0.000,0.0,0.0,0.0
31/12/2022,04:18:11,0.000,0.0,0.0,0.0
31/12/2022,04:19:12,-0.000,0.0,0.0,0.0
31/12/2022,04:20:11,-0.001,0.0,0.0,0.0
31/12/2022,04:21:11,0.000,0.0,0.0,0.0
31/12/2022,04:22:11,0.001,0.0,0.0,0.0
31/12/2022,04:23:11,-0.001,0.0,0.0,0.0
31/12/2022,04:24:11,0.001,0.0,0.0,0.0
31/12/2022,04:25:11,0.000,0.0,0.0,0.0
31/12/2022,04:26:11,-0.000,0.0,0.0,0.0
31/12/2022,04:27:11,-0.000,0.0,0.0,0.0
31/12/2022,04:28:11,-0.001,0.0,0.0,0.0
31/12/2022,04:29:11,0.001,0.0,0.0,0.0
31/12/2022,04:30:11,-0.000,0.0,0.0,0.0
31/12/2022,04:31:12,0.001,0.0,0.0,0.0
31/12/2022,04:32:11,-0.000,0.0,0.0,0.0
31/12/2022,04:33:11,-0.001,0.0,0.0,0.0
31/12/2022,04:34:11,-0.001,0.0,0.0,0.0
31/12/2022,04:35:11,-0.000,0.0,0.0,0.0
31/12/2022,04:36:11,-0.000,0.0,0.0,0.0
31/12/2022,04:37:11,-0.001,0.0,0.0,0.0
31/12/2022,04:38:12,-0.000,0.0,0.0,0.0
31/12/2022,04:39:11,-0.000,0.0,0.0,0.0
31/12/2022,04:40:11,0.000,0.0,0.0,0.0
31/12/2022,04:41:12,-0.000,0.0,0.0,0.0
31/12/2022,04:42:11,0.001,0.0,0.0,0.0
31/12/2022,04:43:11,0.000,0.0,0.0,0.0
31/12/2022,04:44:11,0.000,0.0,0.0,0.0
31/12/2022,04:45:11,0.000,0.0,0.0,0.0
31/12/2022,04:46:11,0.001,0.0,0.0,0.0
31/12/2022,04:47:11,-0.000,0.0,0.0,0.0
31/12/2022,04:48:11,-0.000,0.0,0.0,0.0
31/12/2022,04:49:11,-0.000,0.0,0.0,0.0
31/12/2022,04:50:11,-0.000,0.0,0.0,0.0
31/12/2022,04:51:11,-0.000,0.0,0.0,0.0
31/12/2022,04:52:11,-0.000,0.0,0.0,0.0
31/12/2022,04:53:12,-0.001,0.0,0.0,0.0
31/12/2022,04:54:11,-0.001,0.0,0.0,0.0
31/12/2022,04:55:11,-0.001,0.0,0.0,0.0
31/12/2022,04:56:11,-0.001,0.0,0.0,0.0
31/12/2022,04:57:12,-0.000,0.0,0.0,0.0
31/12/2022,04:58:11,0.000,0.0,0.0,0.0
31/12/2022,04:59:11,0.000,0.0,0.0,0.0
31/12/2022,05:00:11,-0.000,0.0,0.0,0.0
31/12/2022,05:01:11,-0.001,0.0,0.0,0.0
31/12/2022,05:02:11,0.001,0.0,0.0,0.0
31/12/2022,05:03:11,-0.001,0.0,0.0,0.0
31/12/2022,05:04:11,-0.001,0.0,0.0,0.0
31/12/2022,05:05:11,-0.001,0.0,0.0,0.0
31/12/2022,05:06:11,-0.000,0.0,0.0,0.0
31/12/2022,05:07:11,-0.001,0.0,0.0,0.0
31/12/2022,05:08:11,-0.002,0.0,0.0,0.0
31/12/2022,05:09:11,-0.001,0.0,0.0,0.0
31/12/2022,05:10:11,-0.001,0.0,0.0,0.0
31/12/2022,05:11:11,-0.001,0.0,0.0,0.0
31/12/2022,05:12:11,-0.001,0.0,0.0,0.0
31/12/2022,05:13:11,-0.001,0.0,0.0,0.0
31/12/2022,05:14:11,-0.001,0.0,0.0,0.0
31/12/2022,05:15:11,0.000,0.0,0.0,0.0
31/12/2022,05:16:11,-0.002,0.0,0.0,0.0
31/12/2022,05:17:11,-0.001,0.0,0.0,0.0
31/12/2022,05:18:11,-0.001,0.0,0.0,0.0
31/12/2022,05:19:11,-0.001,0.0,0.0,0.0
31/12/2022,05:20:12,-0.001,0.0,0.0,0.0
31/12/2022,05:21:11,-0.001,0.0,0.0,0.0
31/12/2022,05:22:11,-0.001,0.0,0.0,0.0
31/12/2022,05:23:11,-0.001,0.0,0.0,0.0
31/12/2022,05:24:11,-0.001,0.0,0.0,0.0
31/12/2022,05:25:11,-0.001,0.0,0.0,0.0
31/12/2022,05:26:11,-0.001,0.0,0.0,0.0
31/12/2022,05:27:12,-0.001,0.0,0.0,0.0
31/12/2022,05:28:11,-0.001,0.0,0.0,0.0
31/12/2022,05:29:11,-0.001,0.0,0.0,0.0
31/12/2022,05:30:11,0.000,0.0,0.0,0.0
31/12/2022,05:31:11,-0.001,0.0,0.0,0.0
31/12/2022,05:32:12,-0.000,0.0,0.0,0.0
31/12/2022,05:33:11,-0.001,0.0,0.0,0.0
31/12/2022,05:34:11,-0.001,0.0,0.0,0.0
31/12/2022,05:35:12,-0.001,0.0,0.0,0.0
31/12/2022,05:36:11,-0.002,0.0,0.0,0.0
31/12/2022,05:37:12,-0.001,0.0,0.0,0.0
31/12/2022,05:38:11,-0.001,0.0,0.0,0.0
31/12/2022,05:39:11,-0.001,0.0,0.0,0.0
31/12/2022,05:40:11,-0.001,0.0,0.0,0.0
31/12/2022,05:41:11,-0.001,0.0,0.0,0.0
31/12/2022,05:42:12,-0.001,0.0,0.0,0.0
31/12/2022,05:43:11,-0.001,0.0,0.0,0.0
31/12/2022,05:44:11,-0.001,0.0,0.0,0.0
31/12/2022,05:45:11,-0.001,0.0,0.0,0.0
31/12/2022,05:46:12,-0.001,0.0,0.0,0.0
31/12/2022,05:47:14,-0.002,0.0,0.0,0.0
31/12/2022,05:48:12,-0.002,0.0,0.0,0.0
31/12/2022,05:49:12,-0.001,0.0,0.0,0.0
31/12/2022,05:50:11,-0.002,0.0,0.0,0.0
31/12/2022,05:51:11,-0.001,0.0,0.0,0.0
31/12/2022,05:52:11,-0.001,0.0,0.0,0.0
31/12/2022,05:53:11,-0.001,0.0,0.0,0.0
31/12/2022,05:54:12,-0.000,0.0,0.0,0.0
31/12/2022,05:55:11,-0.001,0.0,0.0,0.0
31/12/2022,05:56:12,-0.002,0.0,0.0,0.0
31/12/2022,05:57:11,-0.001,0.0,0.0,0.0
31/12/2022,05:58:11,-0.000,0.0,0.0,0.0
31/12/2022,05:59:11,-0.000,0.0,0.0,0.0
31/12/2022,06:00:11,-0.001,0.0,0.0,0.0
31/12/2022,06:01:11,-0.001,0.0,0.0,0.0
31/12/2022,06:02:11,-0.001,0.0,0.0,0.0
31/12/2022,06:03:12,-0.000,0.0,0.0,0.0
31/12/2022,06:04:11,-0.001,0.0,0.0,0.0
31/12/2022,06:05:11,-0.002,0.0,0.0,0.0
31/12/2022,06:06:11,-0.001,0.0,0.0,0.0
31/12/2022,06:07:11,-0.002,0.0,0.0,0.0
31/12/2022,06:08:12,-0.001,0.0,0.0,0.0
31/12/2022,06:09:11,-0.002,0.0,0.0,0.0
31/12/2022,06:10:12,-0.001,0.0,0.0,0.0
31/12/2022,06:11:11,-0.001,0.0,0.0,0.0
31/12/2022,06:12:12,-0.001,0.0,0.0,0.0
31/12/2022,06:13:11,-0.001,0.0,0.0,0.0
31/12/2022,06:14:11,-0.001,0.0,0.0,0.0
31/12/2022,06:15:12,-0.001,0.0,0.0,0.0
31/12/2022,06:16:11,-0.001,0.0,0.0,0.0
31/12/2022,06:17:11,-0.000,0.0,0.0,0.0
31/12/2022,06:18:12,-0.001,0.0,0.0,0.0
31/12/2022,06:19:11,-0.000,0.0,0.0,0.0
31/12/2022,06:20:11,-0.001,0.0,0.0,0.0
31/12/2022,06:21:12,-0.001,0.0,0.0,0.0
31/12/2022,06:22:11,-0.002,0.0,0.0,0.0
31/12/2022,06:23:11,-0.002,0.0,0.0,0.0
31/12/2022,06:24:12,-0.001,0.0,0.0,0.0
31/12/2022,06:25:11,-0.001,0.0,0.0,0.0
31/12/2022,06:26:12,-0.001,0.0,0.0,0.0
31/12/2022,06:27:11,-0.002,0.0,0.0,0.0
31/12/2022,06:28:11,-0.001,0.0,0.0,0.0
31/12/2022,06:29:12,-0.001,0.0,0.0,0.0
31/12/2022,06:30:11,-0.001,0.0,0.0,0.0
31/12/2022,06:31:11,-0.002,0.0,0.0,0.0
31/12/2022,06:32:11,-0.001,0.0,0.0,0.0
31/12/2022,06:33:12,-0.001,0.0,0.0,0.0
31/12/2022,06:34:11,-0.000,0.0,0.0,0.0
31/12/2022,06:35:12,-0.001,0.0,0.0,0.0
31/12/2022,06:36:11,-0.002,0.0,0.0,0.0
31/12/2022,06:37:11,-0.001,0.0,0.0,0.0
31/12/2022,06:38:11,-0.002,0.0,0.0,0.0
31/12/2022,06:39:11,-0.001,0.0,0.0,0.0
31/12/2022,06:40:11,-0.002,0.0,0.0,0.0
31/12/2022,06:41:12,-0.002,0.0,0.0,0.0
31/12/2022,06:42:11,-0.001,0.0,0.0,0.0
31/12/2022,06:43:11,-0.001,0.0,0.0,0.0
31/12/2022,06:44:11,-0.002,0.0,0.0,0.0
31/12/2022,06:45:11,-0.001,0.0,0.0,0.0
31/12/2022,06:46:12,-0.002,0.0,0.0,0.0
31/12/2022,06:47:11,-0.002,0.0,0.0,0.0
31/12/2022,06:48:11,-0.000,0.0,0.0,0.0
31/12/2022,06:49:12,-0.002,0.0,0.0,0.0
31/12/2022,06:50:11,-0.001,0.0,0.0,0.0
31/12/2022,06:51:11,-0.001,0.0,0.0,0.0
31/12/2022,06:52:11,-0.002,0.0,0.0,0.0
31/12/2022,06:53:11,-0.002,0.0,0.0,0.0
31/12/2022,06:54:12,-0.001,0.0,0.0,0.0
31/12/2022,06:55:11,-0.002,0.0,0.0,0.0
31/12/2022,06:56:11,-0.002,0.0,0.0,0.0
31/12/2022,06:57:12,-0.002,0.0,0.0,0.0
31/12/2022,06:58:11,-0.002,0.0,0.0,0.0
31/12/2022,06:59:11,-0.002,0.0,0.0,0.0
31/12/2022,07:00:11,-0.001,0.0,0.0,0.0
31/12/2022,07:01:12,-0.000,0.0,0.0,0.0
31/12/2022,07:02:11,-0.002,0.0,0.0,0.0
31/12/2022,07:03:11,-0.002,0.0,0.0,0.0
31/12/2022,07:04:11,-0.002,0.0,0.0,0.0
31/12/2022,07:05:11,-0.002,0.0,0.0,0.0
31/12/2022,07:06:11,-0.001,0.0,0.0,0.0
31/12/2022,07:07:12,-0.002,0.0,0.0,0.0
31/12/2022,07:08:12,-0.002,0.0,0.0,0.0
31/12/2022,07:09:11,-0.002,0.0,0.0,0.0
31/12/2022,07:10:11,-0.001,0.0,0.0,0.0
31/12/2022,07:11:11,-0.002,0.0,0.0,0.0
31/12/2022,07:12:12,-0.002,0.0,0.0,0.0
31/12/2022,07:13:11,-0.002,0.0,0.0,0.0
31/12/2022,07:14:11,-0.002,0.0,0.0,0.0
31/12/2022,07:15:12,-0.002,0.0,0.0,0.0
31/12/2022,07:16:11,-0.001,0.0,0.0,0.0
31/12/2022,07:17:11,-0.001,0.0,0.0,0.0
31/12/2022,07:18:11,-0.002,0.0,0.0,0.0
31/12/2022,07:19:12,-0.002,0.0,0.0,0.0
31/12/2022,07:20:11,-0.002,0.0,0.0,0.0
31/12/2022,07:21:11,-0.002,0.0,0.0,0.0
31/12/2022,07:22:11,-0.002,0.0,0.0,0.0
31/12/2022,07:23:11,-0.001,0.0,0.0,0.0
31/12/2022,07:24:12,-0.001,0.0,0.0,0.0
31/12/2022,07:25:11,-0.002,0.0,0.0,0.0
31/12/2022,07:26:11,-0.002,0.0,0.0,0.0
31/12/2022,07:27:12,-0.002,0.0,0.0,0.0
31/12/2022,07:28:11,-0.002,0.0,0.0,0.0
31/12/2022,07:29:12,-0.002,0.0,0.0,0.0
31/12/2022,07:30:11,-0.002,0.0,0.0,0.0
31/12/2022,07:31:11,-0.003,0.0,0.0,0.0
31/12/2022,07:32:11,-0.002,0.0,0.0,0.0
31/12/2022,07:33:12,-0.002,0.0,0.0,0.0
31/12/2022,07:34:11,-0.001,0.0,0.0,0.0
31/12/2022,07:35:12,-0.002,0.0,0.0,0.0
31/12/2022,07:36:11,-0.002,0.0,0.0,0.0
31/12/2022,07:37:12,-0.002,0.0,0.0,0.0
31/12/2022,07:38:11,-0.002,0.0,0.0,0.0
31/12/2022,07:39:11,-0.001,0.0,0.0,0.0
31/12/2022,07:40:12,-0.002,0.0,0.0,0.0
31/12/2022,07:41:11,-0.001,0.0,0.0,0.0
31/12/2022,07:42:11,-0.001,0.0,0.0,0.0
31/12/2022,07:43:11,-0.002,0.0,0.0,0.0
31/12/2022,07:44:12,-0.002,0.0,0.0,0.0
31/12/2022,07:45:11,-0.002,0.0,0.0,0.0
31/12/2022,07:46:11,-0.002,0.0,0.0,0.0
31/12/2022,07:47:12,-0.001,0.0,0.0,0.0
31/12/2022,07:48:11,-0.002,0.0,0.0,0.0
31/12/2022,07:49:12,-0.002,0.0,0.0,0.0
31/12/2022,07:50:12,-0.001,0.0,0.0,0.0
31/12/2022,07:51:11,-0.001,0.0,0.0,0.0
31/12/2022,07:52:12,-0.001,0.0,0.0,0.0
31/12/2022,07:53:11,-0.001,0.0,0.0,0.0
31/12/2022,07:54:11,-0.001,0.0,0.0,0.0
31/12/2022,07:55:12,-0.002,0.0,0.0,0.0
31/12/2022,07:56:11,-0.001,0.0,0.0,0.0
31/12/2022,07:57:11,-0.001,0.0,0.0,0.0
31/12/2022,07:58:11,-0.001,0.0,0.0,0.0
31/12/2022,07:59:11,-0.002,0.0,0.0,0.0
31/12/2022,08:00:12,-0.001,0.0,0.0,0.0
31/12/2022,08:01:11,-0.002,0.0,0.0,0.0
31/12/2022,08:02:11,-0.001,0.0,0.0,0.0
31/12/2022,08:03:11,-0.000,0.0,0.0,0.0
31/12/2022,08:04:12,-0.001,0.0,0.0,0.0
31/12/2022,08:05:11,-0.002,0.0,0.0,0.0
31/12/2022,08:06:12,-0.002,0.0,0.0,0.0
31/12/2022,08:07:11,-0.001,0.0,0.0,0.0
31/12/2022,08:08:11,-0.001,0.0,0.0,0.0
31/12/2022,08:09:12,-0.001,0.0,0.0,0.0
31/12/2022,08:10:11,-0.001,0.0,0.0,0.0
31/12/2022,08:11:11,-0.001,0.0,0.0,0.0
31/12/2022,08:12:11,0.000,0.0,0.0,0.0
31/12/2022,08:13:11,-0.001,0.0,0.0,0.0
31/12/2022,08:14:12,-0.000,0.0,0.0,0.0
31/12/2022,08:15:12,-0.001,0.0,0.0,0.0
31/12/2022,08:16:11,-0.000,0.0,0.0,0.0
31/12/2022,08:17:11,-0.000,0.0,0.0,0.0
31/12/2022,08:18:11,-0.001,0.0,0.0,0.0
31/12/2022,08:19:12,0.000,0.0,0.0,0.0
31/12/2022,08:20:11,0.000,0.0,0.0,0.0
31/12/2022,08:21:11,0.000,0.0,0.0,0.0
31/12/2022,08:22:12,0.000,0.0,0.0,0.0
31/12/2022,08:23:11,0.000,0.0,0.0,0.0
31/12/2022,08:24:11,-0.000,0.0,0.0,0.0
31/12/2022,08:25:12,0.001,0.0,0.0,0.0
31/12/2022,08:26:12,0.001,0.0,0.0,0.0
31/12/2022,08:27:12,0.002,0.0,0.0,0.0
31/12/2022,08:28:11,0.002,0.0,0.0,0.0
31/12/2022,08:29:11,0.002,0.0,0.0,0.0
31/12/2022,08:30:12,0.002,0.0,0.0,0.0
31/12/2022,08:31:11,0.002,0.0,0.0,0.0
31/12/2022,08:32:11,0.002,0.0,0.0,0.0
31/12/2022,08:33:12,0.002,0.0,0.0,0.0
31/12/2022,08:34:12,0.002,0.0,0.0,0.0
31/12/2022,08:35:12,0.002,0.0,0.0,0.0
31/12/2022,08:36:12,0.002,0.0,0.0,0.0
31/12/2022,08:37:12,0.002,0.0,0.0,0.0
31/12/2022,08:38:12,0.002,0.0,0.0,0.0
31/12/2022,08:39:12,0.002,0.0,0.0,0.0
31/12/2022,08:40:11,0.003,0.0,0.0,0.0
31/12/2022,08:41:12,0.002,0.0,0.0,0.0
31/12/2022,08:42:11,0.004,0.0,0.0,0.0
31/12/2022,08:43:12,0.003,0.0,0.0,0.0
31/12/2022,08:44:12,0.003,0.0,0.0,0.0
31/12/2022,08:45:11,0.005,0.0,0.0,0.0
31/12/2022,08:46:11,0.004,0.0,0.0,0.0
31/12/2022,08:47:11,0.005,0.0,0.0,0.0
31/12/2022,08:48:12,0.006,0.0,0.0,0.0
31/12/2022,08:49:11,0.006,0.0,0.0,0.0
31/12/2022,08:50:11,0.005,0.0,0.0,0.0
31/12/2022,08:51:11,0.004,0.0,0.0,0.0
31/12/2022,08:52:11,0.003,0.0,0.0,0.0
31/12/2022,08:53:12,0.003,0.0,0.0,0.0
31/12/2022,08:54:11,0.002,0.0,0.0,0.0
31/12/2022,08:55:11,0.004,0.0,0.0,0.0
31/12/2022,08:56:12,0.003,0.0,0.0,0.0
31/12/2022,08:57:11,0.004,0.0,0.0,0.0
31/12/2022,08:58:11,0.003,0.0,0.0,0.0
31/12/2022,08:59:12,0.004,0.0,0.0,0.0
31/12/2022,09:00:12,0.004,0.0,0.0,0.0
31/12/2022,09:01:12,0.004,0.0,0.0,0.0
31/12/2022,09:02:11,0.004,0.0,0.0,0.0
31/12/2022,09:03:11,0.004,0.0,0.0,0.0
31/12/2022,09:04:12,0.005,0.0,0.0,0.0
31/12/2022,09:05:12,0.008,0.0,0.0,0.0
31/12/2022,09:06:11,0.008,0.0,0.0,0.0
31/12/2022,09:07:12,0.009,0.0,0.0,0.0
31/12/2022,09:08:11,0.010,0.0,0.0,0.0
31/12/2022,09:09:12,0.010,0.0,0.001,0.001
31/12/2022,09:10:11,0.009,0.0,0.001,0.0
31/12/2022,09:11:12,0.011,0.0,0.001,0.0
31/12/2022,09:12:11,0.010,0.0,0.001,0.0
31/12/2022,09:13:12,0.011,0.0,0.001,0.0
31/12/2022,09:14:11,0.013,0.0,0.002,0.001
31/12/2022,09:15:11,0.013,0.0,0.002,0.0
31/12/2022,09:16:12,0.014,0.0,0.002,0.0
31/12/2022,09:17:11,0.014,0.0,0.002,0.0
31/12/2022,09:18:12,0.014,0.0,0.002,0.0
31/12/2022,09:19:11,0.014,0.0,0.003,0.001
31/12/2022,09:20:11,0.014,0.0,0.003,0.0
31/12/2022,09:21:12,0.014,0.0,0.003,0.0
31/12/2022,09:22:11,0.014,0.0,0.003,0.0
31/12/2022,09:23:12,0.013,0.0,0.004,0.001
31/12/2022,09:24:12,0.013,0.0,0.004,0.0
31/12/2022,09:25:11,0.013,0.0,0.004,0.0
31/12/2022,09:26:12,0.013,0.0,0.004,0.0
31/12/2022,09:27:12,0.014,0.0,0.005,0.001
31/12/2022,09:28:11,0.017,0.0,0.005,0.0
31/12/2022,09:29:13,0.016,0.0,0.005,0.0
31/12/2022,09:30:12,0.015,0.0,0.005,0.0
31/12/2022,09:31:11,0.016,0.0,0.006,0.001
31/12/2022,09:32:12,0.017,0.0,0.006,0.0
31/12/2022,09:33:12,0.018,0.0,0.006,0.0
31/12/2022,09:34:11,0.017,0.0,0.006,0.0
31/12/2022,09:35:12,0.018,0.0,0.007,0.001
31/12/2022,09:36:11,0.018,0.0,0.007,0.0
31/12/2022,09:37:12,0.018,0.0,0.007,0.0
31/12/2022,09:38:11,0.018,0.0,0.008,0.001
31/12/2022,09:39:11,0.019,0.0,0.008,0.0
31/12/2022,09:40:12,0.019,0.0,0.008,0.0
31/12/2022,09:41:12,0.019,0.0,0.009,0.001
31/12/2022,09:42:11,0.019,0.0,0.009,0.0
31/12/2022,09:43:12,0.021,0.0,0.009,0.0
31/12/2022,09:44:11,0.021,0.0,0.01,0.001
31/12/2022,09:45:12,0.021,0.0,0.01,0.0
31/12/2022,09:46:11,0.021,0.0,0.01,0.0
31/12/2022,09:47:12,0.020,0.0,0.011,0.001
31/12/2022,09:48:11,0.022,0.0,0.011,0.0
31/12/2022,09:49:11,0.021,0.0,0.011,0.0
31/12/2022,09:50:12,0.021,0.0,0.012,0.001
31/12/2022,09:51:11,0.022,0.0,0.012,0.0
31/12/2022,09:52:12,0.022,0.0,0.012,0.0
31/12/2022,09:53:12,0.022,0.0,0.013,0.001
31/12/2022,09:54:12,0.022,0.0,0.013,0.0
31/12/2022,09:55:12,0.021,0.0,0.014,0.001
31/12/2022,09:56:12,0.023,0.0,0.014,0.0
31/12/2022,09:57:12,0.023,0.0,0.014,0.0
31/12/2022,09:58:12,0.024,0.0,0.015,0.001
31/12/2022,09:59:11,0.025,0.0,0.015,0.0
31/12/2022,10:00:11,0.026,0.0,0.015,0.0
31/12/2022,10:01:12,0.028,0.0,0.016,0.001
31/12/2022,10:02:12,0.029,0.0,0.016,0.0
31/12/2022,10:03:12,0.030,0.0,0.017,0.001
31/12/2022,10:04:11,0.029,0.0,0.017,0.0
31/12/2022,10:05:11,0.030,0.0,0.018,0.001
31/12/2022,10:06:12,0.030,0.0,0.018,0.0
31/12/2022,10:07:12,0.030,0.0,0.019,0.001
31/12/2022,10:08:12,0.029,0.0,0.019,0.0
31/12/2022,10:09:12,0.028,0.0,0.02,0.001
31/12/2022,10:10:11,0.030,0.0,0.02,0.0
31/12/2022,10:11:12,0.030,0.0,0.021,0.001
31/12/2022,10:12:12,0.029,0.0,0.021,0.0
31/12/2022,10:13:12,0.028,0.0,0.022,0.001
31/12/2022,10:14:12,0.028,0.0,0.022,0.0
31/12/2022,10:15:11,0.027,0.0,0.023,0.001
31/12/2022,10:16:12,0.027,0.0,0.023,0.0